STARLINK-2435, 47843

Orbit data source: Space-Track

STARLINK-2435, 47843 is a payload satellite owned by SpaceX/Seattle (US) in LEO that was launched on Thu, 11 Mar 2021 UTC via an FALCON 9 launch vehicle from the Air Force Eastern Test Range (AFETR). Payload-class satellites include a variety of spacecraft equipped with specific instruments for various scientific and technological missions. These include communications satellites like Starlink; space stations such as the ISS; scientific satellites like the Hubble; Earth observation satellites from companies like Planet Labs, Umbra, and HawkEye 360; GPS; miniature CubeSats for education and research; and military/defense satellites.

Loading next visibility...
Identifier
47843, 2021-018BJ
Orbit
LEO
Country
Flag of USUS
Related business
Manufacturer
SpaceX/Seattle
Mission
Operational Commercial Communications
Bus & Motor
STARLINK, Unknown motor
Mass
260 kg wet, ~248 kg dry
Launch date (UTC)
2021-03-11 (5 years ago)
Launch vehicle
FALCON 9
Launch site
Air Force Eastern Test Range (AFETR)
Object type
Payload
Rocket body
Debris
Shape & HBR
Box + 1 Pan, 10.1 m
Radar Cross Section
13.562 m², Large (>1 m²)

Expand to show TLE details & history
Last TLE update: 2 days ago

TLE from 2 days ago
0 STARLINK-2435
1 47843U 21018BJ  26171.17160863  .00000606  00000-0  31308-4 0  9998
2 47843  53.1622 138.5278 0001381  83.9484 276.1675 15.31701502292260
Epoch: 2026-06-20T04:07Z
TLE epoch observation values (Epoch: 2026-06-20T04:07:06.985Z)
Latitude
-0.00001°
Longitude
168.35863°
Altitude
471.535 km
Speed
7.632 km/s
True Right ascension
09h 14m 06s
True Declination
0° 00' 00"
Sunlit
Object was in daylight at epoch
Visualization orbit readout
Latitude
Unknown
Longitude
Unknown
Altitude
Unknown
Speed
Unknown
Apparent Right ascension
Unknown
Apparent Declination
Unknown
Sunlit
N/A
Visualization observer readout
Local Sidereal Time
21:43:02
Azimuth
Unknown
Elevation
Unknown
Doppler factor
Unknown
Orbital elements
Apogee altitude
471.938 km
Perigee altitude
470.046 km
Semi-major axis
6,849.129 km
Eccentricity
0.00014
Inclination
53.1622°
RAAN
138.5278°
Arg. of periapsis
83.9484°
True anomaly
276.15177°
Mean anomaly
276.1675°
Eccentric anomaly
276.15963°
Mean motion
3.82904 °/min
Orbital period
94.02 mins
BSTAR
0.000031308
Loading maneuver chart data...
Computing Atmospheric mass density...

Documentation

Showing up to 5 results
|